Estación de Pirque

Ultimos registro cada 15 minutos 45
Estación Fecha / Hora Temperatura Humedad Lluvia Velocidad Dirección Radiación Presion
45 Pirque 09-05-2026 11:00 14,4 60,3 0 0 260 538,1 939,2
44 Pirque 09-05-2026 10:45 14,3 62,6 0 0 260 508,1 939,2
43 Pirque 09-05-2026 10:30 14,8 66 0 0 261 479,4 939,3
42 Pirque 09-05-2026 10:15 13,2 68,2 0 0 261 443,1 939,4
41 Pirque 09-05-2026 10:00 12,8 68,9 0 0 260 405,6 939,3
40 Pirque 09-05-2026 09:45 13,1 70,8 0 0 260 366,9 939,3
39 Pirque 09-05-2026 09:30 11,3 76,2 0 0 260 321,9 939,3
38 Pirque 09-05-2026 09:15 10,3 79,9 0 0 260 280,6 939,1
37 Pirque 09-05-2026 09:00 9,4 86,1 0 0 260 240,6 939,3
36 Pirque 09-05-2026 08:45 5,6 93,5 0 0 260 199,4 939,4
35 Pirque 09-05-2026 08:30 3,4 95,3 0 0 260 159,4 939,6
34 Pirque 09-05-2026 08:15 1,9 95,8 0 0 260 124,4 939,3
33 Pirque 09-05-2026 08:00 0,3 96,9 0 0 260 55,6 939,2
32 Pirque 09-05-2026 07:45 -1,3 96,5 0 0 260 10,6 939,1
31 Pirque 09-05-2026 07:30 -1,2 96,5 0 0 260 4,4 938,8
30 Pirque 09-05-2026 07:15 -1,1 96,4 0 0 260 0,6 938,9
29 Pirque 09-05-2026 07:00 -1,5 96,3 0 0 260 0,6 938,9
28 Pirque 09-05-2026 06:45 -0,8 96,5 0 0 260 0,6 938,9
27 Pirque 09-05-2026 06:30 -0,5 96 0 0 260 0,6 938,9
26 Pirque 09-05-2026 06:15 -0,7 96,4 0 0 260 0,6 938,6
25 Pirque 09-05-2026 06:00 -0,9 96,4 0 0 260 0,6 938,4
24 Pirque 09-05-2026 05:45 -1 96,1 0 0 260 0,6 938,5
23 Pirque 09-05-2026 05:30 -0,9 95,9 0 0 260 0,6 938,4
22 Pirque 09-05-2026 05:15 -0,3 96 0 0 260 0,6 938,6
21 Pirque 09-05-2026 05:00 0,2 96 0 0 260 0,6 938,7
20 Pirque 09-05-2026 04:45 0 95,7 0 0 260 0,6 938,4
19 Pirque 09-05-2026 04:30 0,5 95,5 0 0 260 0,6 938,4
18 Pirque 09-05-2026 04:15 0,6 95,8 0 0 260 0,6 938,5
17 Pirque 09-05-2026 04:00 0,6 95,6 0 0 260 0,6 938,7
16 Pirque 09-05-2026 03:45 0,3 95,7 0 0 260 0,6 938,7
15 Pirque 09-05-2026 03:30 0 95,2 0 0 260 0,6 938,7
14 Pirque 09-05-2026 03:15 1 95,1 0 0 260 0,6 938,8
13 Pirque 09-05-2026 03:00 1,2 95,2 0 0 260 0,6 939
12 Pirque 09-05-2026 02:45 1,3 95,2 0 0 260 0,6 939,1
11 Pirque 09-05-2026 02:30 1,3 94,9 0 0 260 0,6 939,3
10 Pirque 09-05-2026 02:15 1,5 94,7 0 0 260 0,6 939,4
9 Pirque 09-05-2026 02:00 2,1 94,6 0 0 260 0,6 939,4
8 Pirque 09-05-2026 01:45 2 94,6 0 0 260 0,6 939,5
7 Pirque 09-05-2026 01:30 1,8 94,9 0 0 260 0,6 939,3
6 Pirque 09-05-2026 01:15 2,3 94,4 0 0 260 0,6 939,6
5 Pirque 09-05-2026 01:00 1,7 94,1 0 0 260 0,6 939,6
4 Pirque 09-05-2026 00:45 2 94,2 0 0 260 0,6 939,7
3 Pirque 09-05-2026 00:30 1,6 93,8 0 0 260 0,6 939,7
2 Pirque 09-05-2026 00:15 1,9 93,4 0 0 260 0,6 939,9
1 Pirque 09-05-2026 00:00 2,2 92,9 0 0 260 0,6 940,2